Hourly Data Report for October 11, 2013

All times are specified in Local Standard Time (LST). Add 1 hour to adjust for Daylight Saving Time where and when it is observed.

HALL BEACH A
NUNAVUT

68°46'33.000" N
81°14'33.000" W
9.10 m
2402354
71293
YUX

Download Data

Hourly Data (October 2013)
Hourly Data Report for October 11, 2013
Temp Definition
°C
Dew Point Temp Definition
°C
Rel Hum Definition
%
Wind Dir Definition
10's deg

Wind Spd Definition
km/h
Visibility Definition
km
Stn Press Definition
kPa
Hmdx Definition


Wind Chill Definition


Weather Definition


TIME
00:00 Legend Double Dagger -6.5 -8.2 88 14 9 16.1 102.02   -11 LegendNANA
01:00 Legend Double Dagger -5.2 -6.9 88 16 11 16.1 102.01   -10 LegendNANA
02:00 Legend Double Dagger -4.4 -6.0 89 16 18 16.1 101.99   -10 LegendNANA
03:00 Legend Double Dagger -3.2 -4.8 89 20 17 16.1 102.00   -9 LegendNANA
04:00 Legend Double Dagger -2.9 -4.3 90 19 17 16.1 101.99   -8 LegendNANA
05:00 Legend Double Dagger -2.5 -3.6 92 19 22 12.9 101.95   -9 LegendNANA
06:00 Legend Double Dagger -2.3 -3.4 92 18 28 12.9 101.91   -9 LegendNANA
07:00 Legend Double Dagger -2.1 -3.2 92 18 28 16.1 101.85   -9 LegendNANA
08:00 Legend Double Dagger -1.8 -2.9 92 18 30 16.1 101.79   -9 LegendNANA
09:00 Legend Double Dagger -1.7 -2.5 94 17 35 6.4 101.76   -9 LegendNANA
10:00 Legend Double Dagger -1.5 -2.2 95 17 35 6.4 101.71   -9 LegendNANA
11:00 Legend Double Dagger -1.3 -2.0 95 17 39 4.8 101.64   -9 LegendNANA
12:00 Legend Double Dagger -1.1 -1.8 95 16 35 4.0 101.57   -8 LegendNANA
13:00 Legend Double Dagger -0.8 -1.5 95 16 45 3.2 101.45   -9 LegendNANA
14:00 Legend Double Dagger -0.7 -1.3 96 16 42 2.0 101.34   -8 LegendNANA
15:00 Legend Double Dagger -0.5 -1.1 96 17 45 2.0 101.23   -8 LegendNANA
16:00 Legend Double Dagger -0.2 -0.7 97 17 45 2.0 101.19   -8 LegendNANA
17:00 Legend Double Dagger -0.1 -0.7 96 17 39 8.1 101.14   -7 LegendNANA
18:00 Legend Double Dagger 0.1 -0.5 96 18 42 12.9 101.05     LegendNANA
19:00 Legend Double Dagger 0.2 -0.5 95 18 41 14.5 101.01     LegendNANA
20:00 Legend Double Dagger 0.3 -0.4 95 19 41 16.1 100.99     LegendNANA
21:00 Legend Double Dagger 0.0 -0.7 95 19 30 16.1 100.98   -6 LegendNANA
22:00 Legend Double Dagger 0.1 -0.5 96 18 30 16.1 100.94     LegendNANA
23:00 Legend Double Dagger 0.5 -0.1 96 19 35 16.1 100.89     LegendNANA

Notes on Data Quality.

Legend

  • E = Estimated
  • M = Missing
  • NA = Not Available
  • ‡ = Partner data that is not subject to review by the National Climate Archives
Date modified: